This is the latest recevied weather packets stored in our database for station/object I2TZK-00. If no packets are shown the sender has not sent any weather packets the latest 10 day(s).
| Time | Temp. | Humidity | Pressure | Rain* | Wind** | Luminosity | Snow |
|---|---|---|---|---|---|---|---|
| 1787589423 | 27.22° C | 49% | 1007.9 hPa | - | - | - | - |
| 1787589243 | 27.22° C | 46% | 1008 hPa | - | - | - | - |
| 1787589063 | 27.78° C | 49% | 1007.9 hPa | - | - | - | - |
| 1787588883 | 27.78° C | 54% | 1007.9 hPa | - | - | - | - |
| 1787588703 | 27.78° C | 58% | 1007.8 hPa | - | - | - | - |
| 1787588523 | 27.78° C | 58% | 1007.7 hPa | - | - | - | - |
| 1787588343 | 27.78° C | 58% | 1007.8 hPa | - | - | - | - |
| 1787588162 | 27.78° C | 57% | 1007.8 hPa | - | - | - | - |
| 1787587981 | 27.78° C | 57% | 1008 hPa | - | - | - | - |
| 1787587798 | 27.78° C | 56% | 1008.4 hPa | - | - | - | - |
| 1787587618 | 27.78° C | 54% | 1008.4 hPa | - | - | - | - |
| 1787587435 | 27.78° C | 52% | 1008.4 hPa | - | - | - | - |
| 1787587254 | 27.78° C | 47% | 1008.5 hPa | - | - | - | - |
| 1787587073 | 27.22° C | 45% | 1008.4 hPa | - | - | - | - |
| 1787586890 | 27.78° C | 45% | 1008.4 hPa | - | - | - | - |
| 1787586709 | 27.78° C | 48% | 1008.2 hPa | - | - | - | - |
| 1787586529 | 28.33° C | 52% | 1008.1 hPa | - | - | - | - |
| 1787586345 | 28.33° C | 57% | 1008 hPa | - | - | - | - |
| 1787586079 | 28.33° C | 56% | 1008 hPa | - | - | - | - |
| 1787585899 | 27.78° C | 55% | 1008.2 hPa | - | - | - | - |
| 1787585719 | 27.78° C | 54% | 1008.5 hPa | - | - | - | - |
| 1787585539 | 27.78° C | 53% | 1008.8 hPa | - | - | - | - |
| 1787585359 | 27.78° C | 51% | 1008.9 hPa | - | - | - | - |
| 1787585104 | 27.78° C | 46% | 1008.9 hPa | - | - | - | - |
| 1787584924 | 27.78° C | 46% | 1008.9 hPa | - | - | - | - |
* Rain since midnight (hover to see other rain measurements)
** Current wind speed in m/s (hover to see current wind gust speed)